Location: Alto Pass Reservoir
(37.5801°N, 89.3084°W)
Time: 12:34:57
(UTC+00:00)

NEOSSAT - Pass Details

Date: 05 October 2022
Orbit: 767 x 784 km, 98.4° (Epoch: 26 November)

Event Time Altitude Azimuth Distance (km) Brightness Sun altitude
Rises 10:42:06 0° 124° (ESE) 3,240 ? -15.5°
Reaches altitude 10° 10:45:05 10° 105° (ESE) 2,321 ? -14.9°
Maximum altitude 10:48:26 18° 64° (ENE) 1,842 ? -14.3°
Drops below altitude 10° 10:51:47 10° 23° (NNE) 2,337 ? -13.6°
Sets 10:54:48 0° 5° (N) 3,272 ? -13.0°
